Vertical_Velocity
-2 -4 -0 2 -1 -0 -3 -1 1 -2 -4 -3 -1 -2 -2 -5 -2 1 -3 -2 2 0 -0 -9 -2 1 4 -6 9 7 -3 -0 -3 -0 -5 -1 -2 -0 -1 4 -1 2 -3 -2 -4
-1 -5 -4 0 -3 -3 -1 -2 -3 2 -1 -4 -3 -4 -3 -5 -4 -1 -1 2 -1 -0 -4 -3 -10 -7 -4 -3 -1 -0 -1 -3 -3 1 -0 1 1 4 -2 -4 5 -2 4 3 -6
-3 2 -2 -5 -2 1 -3 -1 -1 -0 -5 -0 -1 -4 -4 -5 -6 1 1 -1 2 -0 -0 0 -3 10 2 3 -2 -1 -3 -2 -12 4 3 1 -2 -2 2 -3 2 -9 -2 0 -3
1 -1 -1 -1 -3 -0 0 -1 -2 -3 -3 -4 -3 -5 -2 -2 -3 1 0 -3 -1 -1 -2 -6 2 -5 1 -0 -3 -0 -2 4 -4 -4 -2 -1 1 -3 6 -9 9 26 3 4 2
-1 2 -1 3 -1 -2 1 -1 0 -2 -2 -1 -1 -2 -3 -2 -25 7 -2 2 -5 -1 -1 -2 -1 3 2 3 -3 2 -1 -1 -3 -0 -2 6 -4 -3 -7 -6 -2 12 5 1 4
5 0 4 -3 6 -2 2 0 4 1 -3 -1 -2 -1 0 -1 1 0 -0 6 -4 -1 3 4 11 4 2 1 3 0 2 -2 -3 -4 1 8 -5 16 -12 -5 -10 -0 2 1 -4
1 1 1 4 -1 -5 3 -2 -0 2 3 -0 -0 -1 2 -50 -1 5 2 1 -7 -3 -3 -5 3 4 2 -3 5 2 -0 -4 -6 -5 -5 8 -0 -4 -12 -1 -3 -7 20 3 -1
-2 1 1 -2 2 3 1 -1 -3 -4 1 6 -3 -1 -15 -12 2 -11 11 -7 3 1 -3 -1 -7 0 6 -1 -10 -0 3 1 1 1 -15 11 -16 -6 -4 7 -5 -5 -1 8 0
0 1 2 -3 1 4 -0 2 -1 -2 -1 1 0 2 -20 4 -7 -6 1 -9 -0 2 -3 -2 13 2 -1 1 -3 1 -1 1 -8 -0 0 -1 -7 -4 -1 3 -1 -0 -1 15 3
2 -1 2 2 3 6 1 1 -0 2 -2 2 2 2 -6 -19 5 2 -8 -2 -0 -0 8 20 5 1 0 1 -4 -2 1 -3 0 -9 -3 -3 -3 -3 -2 8 -1 -2 4 3 4
3 5 1 1 4 -2 -2 6 10 -0 2 -19 -4 -8 9 9 -9 -3 1 -2 10 11 -1 -0 -0 -2 -6 -3 -3 1 4 2 -6 -5 5 0 -1 -2 -2 0 -3 -4 -4 4 1
3 4 6 1 -6 4 5 9 -8 5 -0 -6 -8 4 -16 1 1 -4 11 7 3 -1 3 3 -2 -8 0 2 4 2 2 -5 -4 -2 9 -2 -7 -2 -1 -2 4 -0 -2 -2 5
3 -0 2 5 3 12 -3 7 -5 7 2 -8 -12 -7 -24 21 -15 -16 26 -9 -0 4 -0 -2 -12 2 5 0 5 -2 2 -1 5 -3 -3 -0 -8 -3 -5 -3 2 2 -0 27 16
2 -2 11 10 15 5 8 -1 10 -5 2 -11 -0 -21 8 -10 1 -30 -3 12 5 -3 0 -1 -6 2 1 0 3 2 -0 2 0 4 -2 -1 -8 -1 -3 -1 -1 1 -3 0 -2
-1 9 -2 -3 -2 -16 -19 14 4 -4 5 -9 2 -7 -2 -7 -3 -1 -7 15 -3 -5 5 -14 0 1 3 -4 2 -4 -1 2 1 -0 2 -2 6 -1 1 -2 4 3 2 3 -0
10 -1 -6 33 11 -1 -5 11 2 -8 -12 -2 1 -1 4 11 -1 0 5 20 -1 4 -0 -5 -3 2 -3 -0 -1 1 -3 -2 -0 -0 1 -7 4 -8 1 -1 3 3 2 2 -1
4 0 18 1 -14 -4 4 9 -3 -2 -2 -3 -1 2 -0 1 6 1 -0 2 -4 0 2 -0 -7 -4 8 5 3 -0 -1 -3 -4 -1 -7 -0 5 -10 3 3 0 2 4 2 7
4 9 27 1 1 2 7 -0 6 -7 -5 -1 -1 5 -2 -3 -2 -3 3 1 1 2 1 -2 0 1 -7 -6 -9 -3 -6 -6 -3 -1 -3 -1 -3 5 2 3 4 1 1 4 -3
12 37 32 3 5 -1 2 9 -17 -3 -6 -1 12 4 3 4 -5 6 0 -1 -3 -2 -3 2 -2 1 -1 -1 1 -3 6 -11 -1 -1 -3 -4 -2 2 0 1 0 -0 -3 1 0
23 18 13 3 10 14 10 -7 -0 -1 1 8 -3 -3 -2 -3 11 6 -0 -6 -4 -1 0 -3 -4 -1 3 -6 -1 -2 -7 -7 -1 -1 0 -2 -1 -3 0 1 1 -1 -2 4 3
11 -4 8 25 -1 20 -1 -5 -1 -4 3 2 -4 0 -5 -3 -1 -1 -4 -4 1 2 -1 -1 -5 -7 -6 -1 -3 0 2 1 -6 -4 -4 -1 -5 -4 0 1 0 1 2 5 4
-2 -4 19 -6 7 -0 -0 -6 -3 -4 0 1 0 -0 -3 -1 1 2 -4 -1 3 -4 -2 -0 -2 -1 -5 4 -0 0 0 -3 -5 -5 -2 -5 -10 -2 -1 -1 -0 4 4 9 2
-4 -2 -0 11 -1 2 -1 0 0 2 -0 0 -0 -1 0 -0 -0 1 -0 -0 -2 -1 -1 -1 -2 -2 -10 -1 -0 -0 -1 0 -0 -1 -3 2 -11 -1 -2 -1 -3 1 3 -2 3
-10 -0 -4 -8 0 -3 -1 -1 1 -1 -1 1 -0 1 -0 -0 -0 3 1 3 -1 -1 1 -3 -1 -5 -8 -0 -1 -1 -1 -1 -2 -0 -1 -3 -5 -11 -3 -1 -3 0 -1 -5 -0
3 -0 1 0 -1 -0 -1 -2 0 1 0 1 -0 -1 0 -1 -1 1 1 2 3 -1 0 -6 -2 -1 1 1 -1 1 1 -1 2 -2 0 -10 0 -9 -1 -0 -0 1 -2 -0 -2
-7 -5 1 1 -1 -2 0 1 -2 1 -1 -2 -1 -0 0 -0 3 2 -5 -1 -5 2 -0 -0 -1 -1 -1 0 0 0 -1 0 -0 -2 0 1 -9 1 -5 -3 -4 -3 -1 -5 11
4 8 -14 4 1 -2 -1 1 0 -2 -4 -1 4 0 -1 5 1 7 1 -0 1 -3 0 -2 -2 -2 -1 -0 0 -1 -7 -2 -2 0 3 1 -14 -1 -3 -1 -2 -3 3 10 -4
Height
1520 1524 1526 1528 1529 1532 1533 1534 1534 1534 1534 1533 1531 1530 1529 1526 1524 1523 1522 1523 1522 1521 1521 1519 1517 1516 1516 1516 1515 1514 1524 1527 1516 1506 1505 1497 1496 1492 1490 1489 1490 1491 1494 1495 1501
1517 1520 1523 1526 1527 1529 1530 1532 1533 1533 1532 1532 1530 1528 1527 1525 1522 1519 1519 1519 1521 1521 1520 1519 1517 1516 1516 1514 1513 1513 1522 1517 1503 1503 1503 1498 1498 1496 1493 1491 1494 1495 1495 1495 1501
1513 1516 1519 1522 1525 1526 1527 1529 1530 1531 1530 1530 1529 1527 1527 1525 1523 1520 1519 1520 1520 1520 1520 1520 1518 1518 1515 1513 1509 1507 1513 1506 1502 1501 1501 1498 1496 1496 1494 1493 1490 1492 1493 1494 1495
1509 1512 1515 1517 1521 1523 1524 1526 1527 1528 1528 1528 1527 1525 1525 1526 1527 1519 1518 1518 1519 1519 1519 1519 1518 1517 1516 1515 1509 1510 1503 1502 1501 1499 1499 1498 1495 1494 1493 1491 1491 1492 1490 1489 1492
1504 1507 1510 1513 1516 1519 1521 1523 1524 1524 1525 1526 1525 1524 1523 1524 1518 1519 1518 1517 1516 1517 1518 1519 1518 1517 1515 1513 1509 1505 1502 1500 1498 1498 1497 1496 1494 1492 1489 1488 1488 1488 1490 1490 1492
1499 1502 1505 1509 1511 1514 1517 1520 1520 1521 1522 1523 1523 1522 1522 1521 1513 1514 1515 1516 1515 1516 1517 1518 1518 1516 1513 1511 1512 1506 1502 1498 1496 1496 1493 1494 1489 1491 1487 1489 1487 1485 1486 1486 1486
1494 1497 1500 1504 1507 1511 1513 1515 1517 1518 1518 1520 1519 1519 1517 1511 1510 1511 1511 1511 1512 1514 1515 1516 1517 1517 1515 1511 1509 1507 1504 1497 1494 1493 1490 1491 1487 1485 1483 1484 1483 1484 1482 1483 1483
1487 1493 1495 1500 1504 1506 1509 1511 1514 1516 1517 1517 1516 1516 1508 1506 1503 1500 1504 1505 1508 1510 1511 1514 1516 1517 1515 1513 1509 1509 1505 1506 1489 1487 1484 1490 1486 1478 1476 1476 1475 1477 1477 1477 1479
1480 1486 1489 1496 1501 1503 1506 1509 1511 1512 1515 1515 1516 1515 1504 1500 1496 1496 1496 1499 1503 1506 1508 1512 1514 1514 1514 1515 1518 1510 1518 1505 1493 1481 1480 1482 1479 1470 1469 1469 1470 1470 1470 1471 1473
1474 1478 1485 1491 1496 1500 1502 1506 1507 1509 1513 1513 1513 1518 1501 1499 1493 1494 1495 1497 1499 1502 1505 1509 1510 1511 1512 1518 1523 1511 1511 1503 1500 1485 1478 1481 1480 1470 1466 1466 1467 1467 1466 1466 1468
1467 1473 1479 1485 1490 1494 1500 1506 1508 1509 1505 1503 1497 1497 1495 1496 1495 1495 1494 1496 1497 1500 1503 1503 1511 1515 1510 1505 1502 1502 1502 1499 1490 1482 1481 1481 1476 1472 1465 1464 1463 1462 1463 1462 1461
1459 1467 1473 1479 1485 1491 1495 1496 1500 1500 1499 1494 1490 1492 1494 1494 1496 1492 1493 1497 1494 1498 1497 1502 1507 1499 1497 1497 1497 1496 1498 1495 1485 1480 1481 1479 1473 1470 1466 1464 1462 1461 1457 1458 1460
1452 1459 1465 1473 1480 1486 1487 1491 1495 1497 1500 1484 1484 1483 1489 1491 1491 1489 1491 1492 1491 1493 1492 1496 1489 1488 1491 1491 1493 1493 1495 1492 1491 1484 1483 1482 1475 1471 1464 1462 1465 1461 1453 1456 1453
1445 1451 1458 1468 1479 1477 1481 1488 1490 1497 1497 1479 1478 1469 1476 1486 1480 1483 1485 1490 1488 1489 1489 1486 1482 1482 1483 1484 1485 1494 1484 1482 1486 1490 1507 1491 1497 1476 1470 1467 1470 1469 1466 1465 1460
1438 1443 1451 1460 1462 1469 1478 1483 1487 1494 1491 1461 1460 1461 1464 1471 1473 1470 1478 1484 1483 1484 1485 1483 1478 1480 1481 1480 1479 1486 1482 1486 1485 1494 1497 1496 1499 1477 1469 1470 1469 1473 1471 1469 1465
1430 1438 1444 1452 1459 1464 1470 1477 1485 1496 1489 1452 1450 1453 1463 1466 1470 1475 1476 1476 1479 1483 1479 1478 1473 1475 1475 1474 1476 1478 1484 1487 1488 1494 1513 1491 1491 1489 1473 1471 1471 1471 1471 1470 1469
1423 1430 1437 1442 1448 1459 1467 1472 1484 1476 1455 1446 1449 1453 1459 1463 1471 1476 1478 1477 1480 1489 1486 1476 1474 1469 1472 1477 1475 1478 1488 1512 1516 1516 1510 1478 1482 1477 1470 1471 1471 1471 1473 1472 1472
1415 1426 1429 1433 1443 1453 1460 1462 1464 1449 1436 1436 1442 1451 1459 1461 1468 1472 1475 1477 1472 1474 1476 1482 1481 1466 1459 1466 1476 1478 1486 1506 1509 1515 1498 1479 1489 1481 1466 1466 1467 1469 1474 1476 1475
1410 1417 1421 1425 1434 1444 1452 1452 1440 1433 1435 1435 1439 1450 1457 1459 1460 1467 1466 1466 1464 1470 1480 1473 1468 1453 1452 1455 1466 1475 1485 1483 1492 1500 1520 1495 1483 1476 1469 1469 1471 1471 1473 1475 1475
1403 1407 1414 1417 1425 1434 1441 1442 1430 1425 1424 1425 1435 1434 1445 1449 1455 1460 1459 1453 1459 1460 1462 1463 1473 1455 1457 1458 1462 1466 1470 1494 1503 1512 1512 1487 1481 1482 1479 1477 1475 1477 1479 1478 1476
1397 1402 1408 1412 1423 1430 1427 1433 1429 1422 1422 1426 1431 1435 1434 1440 1445 1450 1449 1446 1449 1457 1460 1461 1468 1465 1460 1467 1471 1473 1478 1479 1483 1494 1507 1502 1492 1480 1480 1477 1478 1479 1479 1480 1477
1385 1399 1400 1407 1422 1423 1429 1420 1423 1422 1422 1425 1427 1427 1428 1432 1436 1446 1445 1444 1445 1452 1462 1462 1469 1476 1468 1461 1464 1468 1471 1477 1501 1494 1500 1505 1499 1473 1475 1476 1479 1480 1479 1477 1475
1383 1396 1398 1403 1409 1414 1423 1417 1422 1427 1424 1426 1426 1424 1426 1431 1440 1437 1443 1450 1449 1455 1461 1461 1475 1492 1479 1472 1468 1473 1473 1478 1481 1489 1496 1501 1495 1472 1470 1473 1474 1475 1474 1474 1474
1381 1388 1399 1402 1407 1408 1420 1427 1427 1432 1429 1424 1425 1426 1430 1433 1430 1435 1447 1450 1454 1459 1459 1460 1467 1476 1489 1486 1482 1483 1482 1481 1486 1504 1501 1497 1489 1473 1477 1477 1473 1473 1474 1472 1470
1382 1393 1393 1405 1408 1411 1417 1423 1429 1433 1432 1425 1425 1427 1433 1436 1435 1444 1446 1452 1459 1462 1461 1464 1481 1479 1478 1482 1482 1484 1483 1482 1486 1487 1496 1485 1485 1468 1470 1471 1469 1468 1466 1465 1463
1384 1384 1395 1404 1413 1420 1420 1424 1428 1428 1431 1428 1431 1432 1433 1438 1442 1444 1450 1456 1459 1464 1464 1465 1487 1487 1488 1480 1483 1484 1477 1481 1481 1481 1480 1480 1474 1468 1464 1462 1462 1461 1461 1459 1458
1385 1389 1386 1406 1415 1422 1424 1424 1428 1436 1438 1436 1438 1436 1437 1449 1446 1446 1450 1455 1459 1462 1466 1470 1478 1484 1489 1480 1487 1493 1478 1476 1475 1474 1476 1479 1469 1464 1463 1458 1456 1454 1452 1453 1457